Location: San Martino di Castrozza
(46.2667°N, 11.8000°E)
Time: 14:57:34
(UTC+00:00)

Cosmos 1766 - Pass Details

Date: 23 April 2021
Orbit: 522 x 542 km, 82.5° (Epoch: 13 May)

Event Time Altitude Azimuth Distance (km) Brightness Sun altitude
Rises 01:54:15 0° 356° (N) 2,715 7.5 -20.7°
Reaches altitude 10° 01:56:29 10° 2° (N) 1,818 6.6 -20.5°
Maximum altitude 02:00:21 48° 77° (ENE) 721 4.2 -20.0°
Enters shadow 02:03:48 13° 151° (SSE) 1,646 5.6 -19.6°
